Location: Deuil
(48.9767°N, 2.3272°E)
Time: 11:01:27
(UTC+00:00)

Feng Yun 1-1 Rocket - Pass Details

Date: 24 October 2021
Orbit: 830 x 933 km, 99.2° (Epoch: 30 November)

Event Time Altitude Azimuth Distance (km) Brightness Sun altitude
Rises 18:22:52 0° 164° (SSE) 3,426 7.2 -16.9°
Reaches altitude 10° 18:25:12 10° 165° (SSE) 2,507 6.5 -17.3°
Maximum altitude 18:30:47 84° 253° (WSW) 897 4.3 -18.2°
Drops below altitude 10° 18:36:36 10° 344° (NNW) 2,594 7.0 -19.2°
Sets 18:39:03 0° 345° (NNW) 3,553 7.7 -19.6°
